Date String (YYYY-MM-DD hh:mm:ss) UTC,Instrument flags,absolute air pressure of the measurement (hPa),sample flow rate (lpm),inlet stack bypass flow (lpm),air temperature of the measurement (°C),ambient temperature measured by the external sensor (°C),aerosol sample conditioner tube jacket temperature (°C),OPC LED temperature (°C),internal box temperature (°C),relative humidity of the measurement (%),span deviation,mass concentration of particles derived from Lorenz-Mie calculation of OPC scattering (μg/m³),mass concentration of particles derived from Lorenz-Mie calculation of OPC scattering (μg/m³),mass concentration of particles derived from Lorenz-Mie calculation of OPC scattering (μg/m³)
DateTimeUTC,F1_M11,P_M11,Q1_M11,Q2_M11,T1_M11,T2_M11,T3_M11,T4_M11,T5_M11,U1_M11,ZSPAN_M11,X0_M11,X2_M11,X1_M11
2023-08-10 09:00:00,SystemResetWarning,0828.8,5.01,000.00,029.8,025.6,000.0,038.2,031.1,21.6,0000.0,0009.43,0005.75,0005.27
2023-08-10 09:01:00,SystemResetWarning,0828.7,5.01,000.00,029.7,025.3,000.0,038.1,030.9,21.7,0000.0,0009.77,0005.74,0005.28
2023-08-10 09:02:00,SystemResetWarning,0828.7,4.99,000.00,029.6,025.6,000.0,038.2,030.7,21.8,0000.0,0009.65,0005.74,0005.28
2023-08-10 09:03:00,SystemResetWarning,0828.7,5.00,000.00,029.5,026.0,000.0,038.2,030.8,21.8,0000.0,0009.59,0005.74,0005.28
2023-08-10 09:04:00,SystemResetWarning,0828.6,5.00,000.00,029.5,026.4,000.0,038.2,030.9,22.0,0000.0,0010.24,0005.79,0005.28
2023-08-10 09:05:00,SystemResetWarning,0828.6,5.00,000.00,029.5,026.8,000.0,038.2,030.9,22.2,0000.0,0010.83,0005.85,0005.30
2023-08-10 09:06:00,SystemResetWarning,0828.6,5.00,000.00,029.5,027.1,000.0,038.2,031.0,22.3,0000.0,0011.54,0005.91,0005.30
2023-08-10 09:07:00,SystemResetWarning,0828.6,5.00,000.00,029.5,027.3,000.0,038.2,031.0,22.4,0000.0,0011.52,0005.91,0005.31
2023-08-10 09:08:00,SystemResetWarning,0828.6,4.99,000.00,029.5,027.6,000.0,038.2,031.1,22.4,0000.0,0011.69,0005.92,0005.32
2023-08-10 09:09:00,SystemResetWarning,0828.6,5.00,000.00,029.5,027.7,000.0,038.2,031.1,22.4,0000.0,0011.60,0005.92,0005.33
2023-08-10 09:10:00,SystemResetWarning,0828.6,5.00,000.00,029.5,027.9,000.0,038.2,031.1,22.2,0000.0,0012.47,0005.94,0005.34
2023-08-10 09:11:00,SystemResetWarning,0828.6,5.00,000.00,029.5,028.0,000.0,038.2,031.2,22.5,0000.1,0012.65,0005.97,0005.35
2023-08-10 09:12:00,SystemResetWarning,0828.7,5.00,000.00,029.6,028.1,000.0,038.2,031.2,22.6,0000.1,0012.57,0005.97,0005.34
2023-08-10 09:13:00,SystemResetWarning,0828.6,5.00,000.00,029.6,028.2,000.0,038.2,031.2,22.7,0000.3,0012.35,0005.98,0005.34
2023-08-10 09:14:00,SystemResetWarning,0828.6,5.00,000.00,029.6,028.3,000.0,038.2,031.3,22.5,0001.0,0012.37,0005.95,0005.33
2023-08-10 09:15:00,SystemResetWarning,0828.7,5.00,000.00,029.6,028.4,000.0,038.2,031.3,22.4,0000.3,0012.15,0005.93,0005.32
2023-08-10 09:16:00,SystemResetWarning,0828.7,5.01,000.00,029.7,028.4,000.0,038.2,031.3,22.4,0000.7,0011.93,0005.94,0005.33
2023-08-10 09:17:00,SystemResetWarning,0828.7,5.00,000.00,029.7,028.5,000.0,038.2,031.3,22.4,0000.1,0011.31,0005.96,0005.33
2023-08-10 09:18:00,SystemResetWarning,0828.6,4.99,000.00,029.7,028.5,000.0,038.3,031.4,22.4,0001.0,0011.19,0005.98,0005.34
2023-08-10 09:19:00,SystemResetWarning,0828.6,4.99,000.00,029.7,028.6,000.0,038.3,031.4,22.5,0001.1,0011.19,0006.01,0005.35
2023-08-10 09:20:00,SystemResetWarning,0828.6,4.99,000.00,029.8,028.6,000.0,038.3,031.4,22.6,0001.2,0012.16,0006.01,0005.35
2023-08-10 09:21:00,SystemResetWarning,0828.6,5.01,000.00,029.8,028.6,000.0,038.3,031.4,23.0,0000.1,0012.10,0006.00,0005.35
2023-08-10 09:22:00,SystemResetWarning,0828.6,5.01,000.00,029.8,028.7,000.0,038.3,031.4,22.8,0000.0,0011.80,0005.99,0005.36
2023-08-10 09:23:00,SystemResetWarning,0828.6,5.00,000.00,029.8,028.7,000.0,038.4,031.5,22.5,0000.0,0011.63,0005.99,0005.37
2023-08-10 09:24:00,SystemResetWarning,0828.6,5.00,000.00,029.8,028.7,000.0,038.4,031.5,21.7,0000.0,0011.62,0006.00,0005.38
2023-08-10 09:25:00,SystemResetWarning,0828.6,5.01,000.00,029.9,028.7,000.0,038.4,031.5,21.4,0000.0,0012.02,0006.03,0005.40
2023-08-10 09:26:00,SystemResetWarning,0828.5,5.00,000.00,029.9,028.7,000.0,038.4,031.5,21.3,0000.0,0012.57,0006.04,0005.42
2023-08-10 09:27:00,SystemResetWarning,0828.6,5.00,000.00,029.9,028.7,000.0,038.4,031.5,21.2,0000.0,0012.52,0006.05,0005.43
2023-08-10 09:28:00,SystemResetWarning,0828.6,4.99,000.00,029.9,028.7,000.0,038.5,031.6,21.1,0000.2,0013.10,0006.05,0005.46
2023-08-10 09:29:00,SystemResetWarning,0828.6,4.99,000.00,029.9,027.0,000.0,038.3,031.4,21.0,0000.0,0013.31,0006.07,0005.48
2023-08-10 09:30:00,SystemResetWarning,0828.6,5.00,000.00,029.8,025.5,000.0,038.2,031.1,21.4,0000.0,0013.29,0006.07,0005.49
2023-08-10 09:31:00,SystemResetWarning,0828.6,5.01,000.00,029.7,025.4,000.0,038.2,030.8,22.0,0000.4,0012.82,0006.10,0005.51
2023-08-10 09:32:00,SystemResetWarning,0828.5,5.01,000.00,029.6,025.7,000.0,038.2,030.7,22.2,0000.9,0012.57,0006.13,0005.52
2023-08-10 09:33:00,SystemResetWarning,0828.5,4.99,000.00,029.6,026.1,000.0,038.2,030.8,22.3,0001.2,0013.34,0006.18,0005.52
2023-08-10 09:34:00,SystemResetWarning,0828.5,5.00,000.00,029.5,026.5,000.0,038.2,030.9,22.0,0001.0,0014.58,0006.21,0005.52
2023-08-10 09:35:00,SystemResetWarning,0828.5,5.00,000.00,029.5,026.8,000.0,038.2,031.0,21.6,0000.6,0015.61,0006.26,0005.54
2023-08-10 09:36:00,SystemResetWarning,0828.5,5.00,000.00,029.5,027.1,000.0,038.2,031.0,21.5,0000.4,0015.26,0006.27,0005.55
2023-08-10 09:37:00,SystemResetWarning,0828.6,5.00,000.00,029.5,027.3,000.0,038.2,031.0,21.5,0000.3,0014.44,0006.27,0005.54
2023-08-10 09:38:00,SystemResetWarning,0828.6,5.00,000.00,029.5,027.5,000.0,038.2,031.1,21.5,0000.5,0014.37,0006.29,0005.54
2023-08-10 09:39:00,SystemResetWarning,0828.6,5.00,000.00,029.5,027.7,000.0,038.2,031.1,21.5,0000.4,0013.85,0006.29,0005.54
2023-08-10 09:40:00,SystemResetWarning,0828.6,5.00,000.00,029.5,027.8,000.0,038.2,031.1,21.6,0000.0,0013.70,0006.29,0005.53
2023-08-10 09:41:00,SystemResetWarning,0828.6,5.00,000.00,029.5,027.9,000.0,038.2,031.1,21.7,-000.1,0013.65,0006.30,0005.53
2023-08-10 09:42:00,SystemResetWarning,0828.6,5.00,000.00,029.6,028.0,000.0,038.2,031.2,21.7,-000.2,0013.38,0006.31,0005.53
2023-08-10 09:43:00,SystemResetWarning,0828.6,5.00,000.00,029.6,028.1,000.0,038.2,031.2,21.7,0000.0,0013.11,0006.28,0005.52
2023-08-10 09:44:00,SystemResetWarning,0828.6,4.99,000.00,029.6,028.2,000.0,038.2,031.2,21.6,0000.1,0012.95,0006.24,0005.52
2023-08-10 09:45:00,SystemResetWarning,0828.6,4.99,000.00,029.6,028.3,000.0,038.2,031.3,21.5,0000.3,0011.68,0006.21,0005.53
2023-08-10 09:46:00,SystemResetWarning,0828.6,5.00,000.00,029.6,028.3,000.0,038.2,031.3,21.5,0000.7,0010.53,0006.17,0005.53
2023-08-10 09:47:00,SystemResetWarning,0828.6,5.01,000.00,029.7,028.4,000.0,038.3,031.3,21.5,0000.2,0010.75,0006.19,0005.53
2023-08-10 09:48:00,SystemResetWarning,0828.5,5.01,000.00,029.7,028.4,000.0,038.3,031.3,21.6,0000.0,0010.82,0006.18,0005.53
2023-08-10 09:49:00,SystemResetWarning,0828.6,5.00,000.00,029.7,028.4,000.0,038.3,031.3,21.6,0000.0,0010.89,0006.20,0005.53
2023-08-10 09:50:00,SystemResetWarning,0828.6,4.99,000.00,029.7,028.5,000.0,038.3,031.4,21.9,0000.2,0010.80,0006.17,0005.53
2023-08-10 09:51:00,SystemResetWarning,0828.6,5.00,000.00,029.7,028.5,000.0,038.3,031.4,22.2,0000.9,0010.84,0006.16,0005.53
2023-08-10 09:52:00,SystemResetWarning,0828.6,5.00,000.00,029.8,028.5,000.0,038.3,031.4,21.9,0000.8,0010.86,0006.16,0005.53
2023-08-10 09:53:00,SystemResetWarning,0828.6,4.99,000.00,029.8,028.5,000.0,038.4,031.4,21.8,0000.9,0010.66,0006.12,0005.53
2023-08-10 09:54:00,SystemResetWarning,0828.6,5.01,000.00,029.8,028.6,000.0,038.4,031.4,22.2,0000.7,0010.55,0006.13,0005.54
2023-08-10 09:55:00,SystemResetWarning,0828.6,5.01,000.00,029.8,028.6,000.0,038.4,031.4,22.7,0000.4,0009.91,0006.15,0005.54
2023-08-10 09:56:00,SystemResetWarning,0828.6,5.00,000.00,029.8,028.6,000.0,038.4,031.5,22.8,0000.5,0009.85,0006.13,0005.52
2023-08-10 09:57:00,SystemResetWarning,0828.6,5.01,000.00,029.9,028.6,000.0,038.4,031.5,22.8,0000.4,0010.04,0006.10,0005.51
2023-08-10 09:58:00,SystemResetWarning,0828.7,4.99,000.00,029.9,028.7,000.0,038.4,031.5,22.7,0000.5,0010.04,0006.06,0005.50
2023-08-10 09:59:00,SystemResetWarning,0828.6,5.00,000.00,029.9,028.7,000.0,038.5,031.5,22.4,-000.2,0010.34,0006.04,0005.50
